User: anonymous   Login
Location: Caltech
(34.1382°N, 118.1253°W)
Time: 23:40:57
(UTC-07:00)
Language:

Aureole 3 Rocket - Orbit

View from above orbital plane
View from above orbital plane
View from above satellite
View from above satellite

Ground track
Ground track

The orbit data is extracted from the following two-line orbital elements,

1 12849U 81094B   16238.85350430  .00000678  00000-0  59044-4 0  9991
2 12849  82.4924  33.3300 0905113 128.9409 239.6021 13.49912924702083
Epoch (UTC): 25 August 2016 20:29:02
Eccentricity: 0.0905113
inclination: 82.4924°
perigee height: 398 km
apogee height: 1747 km
right ascension of ascending node: 33.3300°
argument of perigee: 128.9409°
revolutions per day: 13.49912924
mean anomaly at epoch: 239.6021°
orbit number at epoch: 70208

The dashed part of the orbit path shows where the satellite is in the earth's shadow,  

DLR